Lid_Strength_Index
3 3 2 2 2 3 3 3 3 3 3 3 3 4 4 3 3 3 3 3 3 3 3 4 4 4 4 5 4 3 -2 0 1 1 2 3 6 7 9 6 6 7 5 5 4 4 4
3 3 3 3 3 2 3 3 3 3 4 4 4 4 4 4 3 3 3 3 3 3 3 3 4 3 4 6 1 2 3 4 1 1 2 2 3 3 5 6 6 5 5 5 4 5 4
3 3 3 3 3 3 3 3 3 4 4 4 4 4 4 4 4 4 4 3 3 3 3 3 2 2 4 3 1 1 1 1 0 1 3 2 2 4 5 7 4 5 6 5 5 5 6
3 3 3 3 3 3 3 3 4 4 4 4 4 4 5 5 4 4 4 4 3 3 2 2 1 2 4 1 -0 1 1 1 0 1 2 1 2 3 5 4 6 8 9 12 6 5 5
4 3 3 3 3 3 4 4 4 4 4 4 4 5 5 5 5 5 4 4 3 2 1 1 2 3 4 1 2 2 1 2 2 1 1 1 2 4 6 9 11 8 14 12 10 5 6
4 3 4 3 3 3 4 4 4 4 4 4 4 5 5 5 5 5 4 4 2 2 2 1 1 3 3 3 2 2 2 1 2 2 3 4 4 7 8 11 16 11 10 9 10 7 6
4 4 3 4 4 4 4 4 4 4 4 4 4 5 5 5 5 5 4 2 3 4 3 5 4 4 4 1 1 3 3 3 3 4 7 5 6 10 9 8 8 8 8 9 9 7 8
4 4 3 3 4 4 4 5 5 4 4 5 5 5 5 5 5 5 4 3 2 2 4 4 4 4 2 1 3 2 3 4 5 7 5 6 8 6 6 7 7 7 8 9 8 6 7
4 4 4 4 4 5 5 5 5 5 5 5 5 5 5 5 5 5 3 2 0 1 4 4 4 4 3 2 4 3 3 3 5 7 7 8 7 5 6 6 7 7 9 9 9 7 7
4 4 4 4 5 5 5 5 5 5 5 5 5 5 6 6 5 2 2 0 -0 0 7 6 5 4 3 3 5 2 2 3 5 6 6 6 5 6 6 7 6 8 6 7 7 8 12
4 4 5 5 5 5 5 5 5 5 5 5 5 5 6 6 4 2 1 -0 0 1 13 6 6 2 3 4 4 4 2 3 5 6 5 7 6 6 7 6 5 7 5 6 7 8 8
3 3 4 5 5 5 5 5 5 5 5 5 5 6 6 4 4 3 1 0 2 8 12 7 6 5 5 5 4 4 4 3 3 5 5 6 4 5 5 5 5 5 6 6 7 8 11
3 4 4 4 5 5 5 5 5 5 6 6 6 6 6 3 2 1 1 2 8 11 6 7 7 6 6 6 5 5 6 6 7 9 8 6 6 5 5 6 5 6 7 11 12 11 12
3 3 4 4 4 5 5 5 5 5 6 6 7 7 5 4 1 1 1 5 11 7 7 5 5 6 7 6 6 6 6 7 6 6 8 9 9 7 5 6 7 7 7 10 14 12 11
4 3 4 4 4 5 5 5 5 5 6 6 7 2 3 4 3 1 4 9 9 7 5 6 6 7 7 6 6 6 7 7 6 6 8 8 9 6 6 5 6 7 8 6 9 9 10
4 4 4 4 4 4 4 5 5 5 6 6 4 1 2 1 2 2 6 9 6 5 5 5 8 6 8 7 7 7 7 5 6 5 5 6 9 6 6 6 6 6 5 9 8 12 13
4 5 4 4 4 4 4 4 5 5 6 7 3 4 1 2 1 4 8 7 5 4 4 6 6 7 7 7 7 7 7 6 5 5 5 6 7 7 6 7 7 7 8 7 8 9 11
4 4 4 4 4 4 4 5 5 6 6 5 2 6 1 1 5 5 7 5 7 5 4 5 5 6 6 6 7 7 7 6 4 5 6 5 7 9 8 5 5 6 7 7 10 10 9
5 5 5 5 5 4 4 5 5 6 6 5 4 4 1 2 7 6 5 5 5 5 5 5 6 5 5 6 8 6 6 5 4 5 6 5 7 10 9 7 6 7 6 6 7 7 9
5 5 5 5 5 5 4 4 5 5 6 5 4 5 3 3 4 5 6 6 6 5 5 5 5 5 6 6 6 7 6 5 4 5 5 4 7 8 10 8 7 8 7 6 7 9 9
5 6 5 5 5 4 4 4 4 5 6 3 3 5 4 6 5 5 5 5 6 7 5 5 6 6 6 7 7 7 6 6 5 6 5 5 8 7 7 7 7 7 7 7 8 7 9
5 6 6 6 6 5 5 4 4 5 6 2 5 5 4 5 5 5 8 6 6 6 6 7 7 6 6 7 7 8 7 6 7 5 6 5 9 7 9 7 7 8 7 7 7 7 7
5 6 7 6 6 5 5 5 5 5 5 3 3 2 3 6 6 6 6 6 6 6 6 6 6 6 6 6 5 5 5 5 5 6 7 7 8 9 11 8 8 10 8 7 7 6 7
5 5 6 6 6 6 6 5 5 5 6 3 3 3 5 6 6 6 6 6 6 6 6 5 6 7 5 4 4 5 6 6 6 6 5 7 8 9 11 9 14 8 5 6 7 6 6
5 5 5 5 5 5 5 5 5 5 5 4 2 3 4 7 5 6 6 7 7 6 7 7 6 5 4 6 9 10 9 9 7 6 6 6 6 9 11 11 9 7 6 6 7 7 6
5 5 5 5 5 5 4 4 4 5 5 3 1 1 3 6 6 4 6 6 6 6 6 5 4 3 4 7 8 11 11 9 9 8 6 6 5 8 9 11 12 8 5 5 5 9 6
7 6 5 5 5 5 5 5 4 4 5 5 2 1 2 5 4 4 5 6 4 5 6 5 5 5 4 7 9 10 10 7 9 9 8 8 8 9 9 10 9 6 5 4 11 11 6
7 6 6 5 5 5 5 5 5 4 5 5 2 1 3 4 3 4 4 4 4 5 6 5 6 5 5 8 8 8 8 7 8 7 8 9 10 10 9 11 12 5 6 9 7 5 5
5 5 5 5 6 5 5 5 5 4 5 5 3 1 1 3 3 2 2 2 2 3 4 4 5 6 5 7 7 7 8 7 8 11 6 9 7 9 9 9 5 5 5 4 4 5 4